Volver al catálogo

FORMOSAT-8A

ActivoCienciaSSO
NORAD 66666·PAYLOAD·🇹🇼 Taiwan

Lanzado Nov 28, 2025 desde Vandenberg Space Force Base

Loading…

Próximos Pases (próximas 24 horas)

TLE

ActualizadoSource: Space-Track

Época: Sep 14, 2026, 03:28 UTC

1 66666U 25276A   26257.14455792  .00001296  00000-0  10603-3 0  9992
2 66666  97.6543 330.0521 0006050 332.4424  27.6478 15.01064045 43404

Sigue FORMOSAT-8A en tiempo real con AllMySat

Download on the App Store